Regional Weather Roundup
Issued by NWS Sterling, VA

Home | Current Version | Previous Version | Text Only | Print | Product List | Glossary On
Versions: 1 2 3 4 5 6 7 8 9 10 11 12 13 14 15 16 17 18 19 20 21 22 23 24 25 26 27 28 29 30 31 32 33 34 35 36 37 38 39 40 41 42 43 44 45 46 47 48 49 50
000
ASUS41 KLWX 250311
RWRLWX

REGIONAL WEATHER ROUNDUP
NATIONAL WEATHER SERVICE BALTIMORE MD/WASHINGTON DC
1100 PM EDT MON JUL 24 2017

Note: "FAIR" indicates few or no clouds below 12,000 feet
with no significant weather and/or obstructions to visibility.
 TC=TEMPERATURE CELSIUS

 * =Non NWS site. Station does not report precipitation (e.g. rain,
    snow, etc.), thunder, or fog.

DCZ001-MDZ009-015-VAZ040>042-051-053>054-250400-
WASHINGTON METRO

CITY           SKY/WX    TMP DP  RH WIND       PRES   REMARKS
WASHINGTON NAT MOCLDY    83  71  67 NW15      29.87R
DULLES         CLOUDY    80  66  62 NW8       29.89R
ANDREWS AFB    CLOUDY    80  74  81 W8        29.87R
FT BELVOIR     CLOUDY    82  70  66 NW7       29.87R
QUANTICO       PTCLDY    80  75  84 NW9       29.87S
COLLEGE PARK*  MOCLDY    80  69  70 N7        29.87R
LEESBURG*      CLOUDY    81  70  69 N6        29.92R
MANASSAS*      CLOUDY    77  73  87 NW6       29.89R
GAITHERSBURG*  CLOUDY    76  68  76 CALM      29.92R

$$

MDZ006>007-011-014-250400-
BALTIMORE METRO

CITY           SKY/WX    TMP DP  RH WIND       PRES   REMARKS
BWI AIRPORT    MOCLDY    73  72  96 NW5       29.88R
MD SCIENCE CTR   N/A     78  71  79 MISG      29.88R
MARTIN STATE   CLOUDY    73  72  94 NW5       29.88S
ANNAPOLIS      CLOUDY    81  77  88 CALM      29.86R
FORT MEADE*    CLOUDY    72  70  94 CALM      29.90R

$$

MDZ012-015-019>023-250400-
MARYLAND EASTERN SHORE

CITY           SKY/WX    TMP DP  RH WIND       PRES   REMARKS
OCEAN CITY     CLEAR     78  75  90 VRB5      29.88R
SALISBURY      NOT AVBL
BAY BRIDGE AP* CLOUDY    81  73  78 NW12G20   29.86R
CAMBRIDGE*     CLEAR     81  73  78 S8        29.85S
EASTON*        CLOUDY    82  73  74 SW8       29.88S

$$

MDZ017>025-250400-
SOUTHERN MARYLAND

CITY           SKY/WX    TMP DP  RH WIND       PRES   REMARKS
PATUXENT RIVER PTCLDY    79  77  94 S5        29.84F
ST INIGOES     PTCLDY    82  78  88 SE7       29.84F HX  91
LEONARDTOWN*   MOCLDY    79  73  83 CALM      29.87F

$$

MDZ003>005-250400-
NORTH CENTRAL MARYLAND

CITY           SKY/WX    TMP DP  RH WIND       PRES   REMARKS
FREDERICK*     PTCLDY    73  73 100 NW6       29.93R
HAGERSTOWN APT CLEAR     76  63  64 NW12      29.94R
WESTMINSTER*   CLEAR     75  70  83 CALM      29.91S

$$

MDZ501>502-250400-
WESTERN MARYLAND

CITY           SKY/WX    TMP DP  RH WIND       PRES   REMARKS
OAKLAND*       CLOUDY    61  55  82 NW7       30.05R
CUMBERLAND*    CLOUDY    73  61  64 N6        30.02R

$$

VAZ025>031-250400-
SHENANDOAH VALLEY

CITY           SKY/WX    TMP DP  RH WIND       PRES   REMARKS
WINCHESTER*    MOCLDY    75  64  69 NW5       29.94R
FRONT ROYAL*   MOCLDY    77  64  65 NW5       29.92R
LURAY*         CLOUDY    81  63  54 SW7       29.95R
NEW MARKET*    PTCLDY    73  65  76 CALM      29.95R
STAUNTON*      PTCLDY    73  63  71 SE3       29.99R
WAYNESBORO*    PTCLDY    76  64  65 CALM      29.99R

$$

WVZ021-048>050-054>055-250400-
EASTERN WEST VIRGINIA PANHANDLE

CITY           SKY/WX    TMP DP  RH WIND       PRES   REMARKS
MARTINSBURG    CLOUDY    77  64  64 N6        29.93R
PETERSBURG*    PTCLDY    77  67  71 N3        29.98R

$$

VAZ036>039-050-250400-
CENTRAL FOOTHILLS

CITY           SKY/WX    TMP DP  RH WIND       PRES   REMARKS
CHARLOTTESVILL MOCLDY    81  65  58 NW5       29.92R
CULPEPER*      MOCLDY    76  72  85 CALM      29.91R
ORANGE*        MOCLDY    79  64  61 CALM      29.90S
GORDONSVILLE*  PTCLDY    74  71  89 CALM      29.91R
WARRENTON*     MOCLDY    75  68  78 CALM      29.89R

$$

VAZ055>057-250400-
NORTH AND CENTRAL PIEDMONT

CITY           SKY/WX    TMP DP  RH WIND       PRES   REMARKS
FREDERICKSBRG* CLOUDY    80  73  76 MISG      29.87S
STAFFORD*      PTCLDY    76  72  87 W3        29.92S

$$

NCZ024-NYZ072-PAZ021-071-VAZ022-071-250400-
OTHER REGIONAL OBSERVATIONS

CITY           SKY/WX    TMP DP  RH WIND       PRES   REMARKS
NEW YORK CITY  CLOUDY    65  58  78 VRB6      29.96R
PHILADELPHIA   CLOUDY    70  67  90 E9        29.89F
PITTSBURGH     CLOUDY    67  57  70 NW8       30.04R
ROANOKE        PTCLDY    80  65  59 NW8       30.01R
RICHMOND       PTCLDY    81  71  71 SW6       29.88S
RALEIGH        MOCLDY    79  73  82 W8        29.96R

$$

ANZ530>537-250400-
MARINE OBSERVATIONS

STATION/POSITION TIME  TEMP    WIND        PRES
                       AIR SEA DIR/SP/G
                 (UTC) (F)     (DEG/KT/KT) (MB)
THOMAS PT LIGHT  0300   83 83  310/ 11/ 12   N/A
BALT KEY BRIDGE  0248   78     340/  9/ 10 1011.3R
COVE POINT       0248   82     210/ 16/ 18 1011.0F
LEWISETTA        0248   81 86  210/  7/  9 1011.0F
SOLOMONS ISLAND  0248   82 84  200/  9/ 10   N/A
PINEY POINT      0248          210/ 13/ 14   N/A

$$




USA.gov is the U.S. government's official web portal to all federal, state and local government web resources and services.